Погода Усть-Кулом

Поиск расширенной информации на нашем сайте:

Полезная информация:

Новости сайта



02.01.2020
Опубликован Долгосрочный прогноз погоды по городам России и ближнего зарубежья на январь 2020 года.
Карты: Прогноз на январь и февраль 2020 года, Сравнение прогнозируемой аномалии приземной температуры воздуха на январь 2020 года по разным моделям.




Погода Усть-Кулом - сегодня

Время (UTC), дата Ветер
(°,м/с) 
Видим.   Явления Облачность Т
(°С)
Тd
(°С)
f(%) Тe
(°С)
Pmin
(гПа)
dP
(гПа)
Po
(мм)
O2
(г/м3)
Тmin Tmax R s Состояние
почвы
03 29.11.20 090 (В) 20000 м    ясно 
-21.8 -23.6 85 -22  1049.7  0.7  772  340  -22.1      15  равномерный
сухой снег
100% 
06 29.11.20 тихо ()   20000 м    10/0 верхняя 
[Ci]
-20.6 -23.1 80 -21  1050.2  0.7  773  338           
09 29.11.20 110 (В) 20000 м    10/0 верхняя 
[Ci fib]
-18.4 -21.7 75 -19  1050.7  0.6  773  336           
12 29.11.20 120 (ЮВ) 20000 м    10/0 верхняя 
[Ci fib]
-19 -21.6 80 -22  1050.7  773  336           
15 29.11.20 110 (В) 20000 м    10/0 верхняя 
[Ci fib]
-17.7 -20.6 78 -20  1050.5  0.1  773  335    -17.5       
18 29.11.20 120 (ЮВ) 20000 м    10/0 верхняя 
[Cs]
-18.3 -20.9 80 -21  1050.7  0.1  773  335           
21 29.11.20 110 (В) 20000 м    10/0 средняя 
[Ac und]
-16.5 -18.4 85 -17  1050.3  -0.2  773  333           
00 30.11.20 120 (ЮВ) 20000 м    10/0 средняя 
[Ac und]
-16 -17.9 85 -18  1049.7  -0.6  772  332           
03 30.11.20 120 (ЮВ) 20000 м    10/10 1000 м 
[Sc]
-14.7 -16.7 85 -17  1049.1  -0.5  772  330  -18.6      15  равномерный
сухой снег
100% 
06 30.11.20 120 (ЮВ) 20000 м    10/10 300 м 
[St]
-12.8 -14.8 85 -15  1048.7  -0.2  772  328           
09 30.11.20 120 (ЮВ) 20000 м    10/10 300 м 
[St]
-12.6 -14.6 85 -15  1048.3  -0.4  772  327           
12 30.11.20 120 (ЮВ) 20000 м    10/10 300 м 
[St]
-11.3 -12.6 90 -13  1047.7  -0.4  771  325           
15 30.11.20 110 (В) 50000 м    10/10 300 м 
[St]
-10.4 -12.4 85 -12  1046.6  -1.1  770  324    -10.3       
18 30.11.20 110 (В) 20000 м    10/10 300 м 
[St]
-9.4 -11 88 -11  1045.7  -0.8  770  322           
21 30.11.20 110 (В) 20000 м    10/0 верхняя 
[Ci fib]
-9.9 -11.6 87 -12  1044.1  -1.6  769  323           
00 01.12.20 160 (Ю) 20000 м    10/0 средняя, верхняя 
[Ac trans|Ci fib]
-7.7 -9.1 90 -10  1042.7  -1.2  768  319           
03 01.12.20 170 (Ю) 20000 м    10/10 300 м 
[St]
-5.7 -7.5 87 -8  1041.9  -0.7  767  317  -10.6      15  равномерный
сухой снег
100% 
06 01.12.20 130 (ЮВ) 20000 м    10/0 верхняя 
[Ci fib]
-6.6 -8.2 88 -8  1041.4  -0.5  767  318           
09 01.12.20 150 (ЮВ) 20000 м    ясно 
-5.3 -7.4 85 -8  1040.6  -0.7  766  316           
12 01.12.20 160 (Ю) 20000 м    6/0 верхняя 
[Cc]
-6.1 -8.4 84 -9  1040.2  -0.5  766  317           
15 01.12.20 160 (Ю) 50000 м    10/0 средняя 
[Ac und]
-5 -8.2 78 -8  1039.3  -0.8  765  315    -5       
18 01.12.20 170 (Ю) 20000 м    10/6 1000 м средняя, верхняя 
[Sc|Ac trans|Ci fib]
-5.2 -8.5 78 -8  1038.4  -0.9  765  315           
21 01.12.20 170 (Ю) 20000 м    10/0 верхняя 
[Cs]
-7.3 -10.3 79 -11  1038.3  -0.2  765  318           
00 02.12.20 180 (Ю) 20000 м    10/0 верхняя 
[Cs]
-7.9 -10.6 81 -11  1038  -0.4  764  318           
03 02.12.20 200 (Ю) 20000 м    10/10 600 м 
[Sc]
-7.9 -11 78 -12  1037.6  -0.3  764  318  -8.2      15  равномерный
сухой снег
100% 
Время (UTC), дата Ветер
(°,м/с) 
Видим.   Явления Облачность Т
(°С)
Тd
(°С)
f(%) Тe
(°С)
Pmin
(гПа)
dP
(гПа)
Po
(мм)
O2
(г/м3)
Тmin Tmax R s Состояние
почвы

Для получения пояснительной информации подведите курсор к названию столбца.

ПОГОДА Усть-Кулом - архив

Всё, что Вы хотите узнать о погоде Усть-Кулом - удобно и подробно!

Выберите нужную дату (начиная с 1 января 2019* года) и нажмите кнопку "Найти".
Будут отображены архивные сводки погоды по пункту Усть-Кулом, начиная с указанной даты.


Отображать данные в формате CSV (для использования в таблицах Excel)


Внимание! Наш архив погоды предназначен исключительно для личного некоммерческого использования в познавательных целях. Если Вам необходимы официальные справки о состоянии погоды (для производственных, юридических, коммерческих и т.п. целей), обращайтесь в органы Росгидромета.

*Примечание: данная дата относится к архиву по метеостанциям СССР (Россия, СНГ, Балтия).
Архив по метеостанциям Зарубежной Европы и Азии (кроме Китая) хранится 10 дней, по другим регионам земного шара (Китай, Африка, Америка, Австралия, Океания) - 1 день.

Усть-Кулом - район местоположения метеостанции


Название, широта, долгота, высота метеостанции:
Усть-Кулом 61.7°ш. 53.7°д. 144 м над ур. моря [Российская Федерация]

Дополнительная информация

В oтличие oт бoльшинства пoгoдных сайтoв мы публикуем пoдрoбную метеoинфoрмацию в детальнoм прoфессиoнальнoм фoрмате.

Характеристики температуры и влажнoсти вoздуха измеряются на высoте 2 м в тени вдали oт зданий и деревьев.
Скoрoсть ветра измеряется на высoте 10 м (на урoвне рoста челoвека скoрoсть ветра ниже в 1.5-2 раза). Если метеoстанция нахoдится в гoрoде или в лесу, тo скoрoсть ветра занижена на 2-4 м/с пo сравнению с oткрытым местoм. Скoрoсть ветра над акватoриями крупных рек и oзёр, а также на вершинах хoлмoв на 2-5 м/с выше, чем в oбычных услoвиях.
Атмoсфернoе давление в разных тoчках местнoсти мoжет значительнo oтличаться oт давления на метеoстанции, в зависимoсти oт услoвий рельефа (при пoдъёме на 10 м давление пoнижается примернo на 1 мм рт.ст.).